| time (UTC) | temp C | wind direction | speed KPH | gust KPH | rain 1hr cm | rain 24hr cm | rain mn cm | humidity % | barometer mb |
| 20260510011358 | 21 | 2 | 0.0 | 4.8 | 0.00 | 0.00 | 0.00 | 58 | 1028.5 |
| 20260510010356 | 20 | 296 | 1.6 | 4.8 | 0.00 | 0.00 | 0.00 | 60 | 1028.5 |
| 20260510005354 | 20 | 266 | 1.6 | 4.8 | 0.00 | 0.00 | 0.00 | 60 | 1028.5 |
| 20260510004353 | 20 | 264 | 1.6 | 3.2 | 0.00 | 0.00 | 0.00 | 61 | 1028.8 |
| 20260510003351 | 18 | 264 | 1.6 | 3.2 | 0.00 | 0.00 | 0.00 | 65 | 1028.8 |
| 20260510002349 | 18 | 151 | 1.6 | 3.2 | 0.00 | 0.00 | 0.00 | 67 | 1028.8 |
| 20260510001348 | 17 | 291 | 1.6 | 4.8 | 0.00 | 0.00 | 0.00 | 68 | 1028.5 |
| 20260510000348 | 17 | 312 | 1.6 | 4.8 | 0.00 | 0.00 | 0.00 | 69 | 1028.5 |
| 20260509235345 | 17 | 260 | 1.6 | 4.8 | 0.00 | 0.00 | 0.00 | 71 | 1028.5 |
| 20260509234343 | 16 | 296 | 1.6 | 3.2 | 0.00 | 0.00 | 0.00 | 72 | 1028.5 |
| 20260509233342 | 16 | 307 | 1.6 | 4.8 | 0.00 | 0.00 | 0.00 | 73 | 1028.5 |
| 20260509232340 | 16 | 255 | 3.2 | 4.8 | 0.00 | 0.00 | 0.00 | 75 | 1028.5 |
| 20260509231339 | 16 | 260 | 1.6 | 4.8 | 0.00 | 0.00 | 0.00 | 76 | 1028.5 |
| 20260509230306 | 15 | 257 | 1.6 | 6.4 | 0.00 | 0.00 | 0.00 | 76 | 1028.5 |
| 20260509225306 | 15 | 225 | 3.2 | 6.4 | 0.00 | 0.00 | 0.00 | 79 | 1028.5 |
| 20260509224303 | 15 | 266 | 1.6 | 6.4 | 0.00 | 0.00 | 0.00 | 80 | 1028.4 |
| 20260509223231 | 14 | 252 | 1.6 | 6.4 | 0.00 | 0.00 | 0.00 | 80 | 1028.4 |
| 20260509222229 | 14 | 310 | 1.6 | 4.8 | 0.00 | 0.00 | 0.00 | 84 | 1028.4 |
| 20260509221228 | 13 | 295 | 1.6 | 4.8 | 0.00 | 0.00 | 0.00 | 85 | 1028.1 |
| 20260509220227 | 13 | 64 | 1.6 | 4.8 | 0.00 | 0.00 | 0.00 | 89 | 1028.1 |
| 20260509215154 | 12 | 332 | 1.6 | 1.6 | 0.00 | 0.00 | 0.00 | 91 | 1028.1 |
| 20260509214152 | 12 | 332 | 0.0 | 1.6 | 0.00 | 0.00 | 0.00 | 92 | 1028.1 |
| 20260509213150 | 11 | 332 | 0.0 | 1.6 | 0.00 | 0.00 | 0.00 | 93 | 1028.1 |
| 20260509212148 | 11 | 330 | 0.0 | 1.6 | 0.00 | 0.00 | 0.00 | 93 | 1027.8 |
| 20260509211147 | 11 | 330 | 0.0 | 3.2 | 0.00 | 0.00 | 0.00 | 93 | 1027.4 |
| 20260509210145 | 10 | 330 | 0.0 | 3.2 | 0.00 | 0.00 | 0.00 | 93 | 1027.4 |
| 20260509205143 | 10 | 330 | 1.6 | 3.2 | 0.00 | 0.00 | 0.00 | 93 | 1027.4 |
| 20260509204142 | 10 | 330 | 1.6 | 1.6 | 0.00 | 0.00 | 0.00 | 93 | 1027.1 |
| 20260509203140 | 10 | 330 | 0.0 | 0.0 | 0.00 | 0.00 | 0.00 | 93 | 1027.1 |
| 20260509202107 | 10 | 330 | 0.0 | 0.0 | 0.00 | 0.00 | 0.00 | 93 | 1027.1 |
| 20260509201106 | 10 | 330 | 0.0 | 0.0 | 0.00 | 0.00 | 0.00 | 92 | 1027.1 |
| 20260509200104 | 10 | 330 | 0.0 | 0.0 | 0.00 | 0.00 | 0.00 | 92 | 1026.8 |
| 20260509195102 | 10 | 330 | 0.0 | 0.0 | 0.00 | 0.00 | 0.00 | 92 | 1026.8 |
| 20260509194101 | 10 | 330 | 0.0 | 0.0 | 0.00 | 0.00 | 0.00 | 92 | 1026.4 |
| 20260509193100 | 10 | 330 | 0.0 | 0.0 | 0.00 | 0.00 | 0.00 | 92 | 1026.4 |
| 20260509192058 | 10 | 330 | 0.0 | 1.6 | 0.00 | 0.00 | 0.00 | 92 | 1026.4 |
| 20260509191057 | 10 | 330 | 0.0 | 1.6 | 0.00 | 0.00 | 0.00 | 92 | 1026.1 |
| 20260509190055 | 10 | 330 | 0.0 | 0.0 | 0.00 | 0.00 | 0.00 | 92 | 1026.1 |
| 20260509185053 | 10 | 330 | 0.0 | 1.6 | 0.00 | 0.00 | 0.00 | 92 | 1025.7 |
| 20260509184051 | 11 | 330 | 1.6 | 1.6 | 0.00 | 0.00 | 0.00 | 92 | 1025.7 |
| 20260509183050 | 11 | 330 | 0.0 | 3.2 | 0.00 | 0.00 | 0.00 | 93 | 1025.7 |
| 20260509182048 | 10 | 330 | 1.6 | 3.2 | 0.00 | 0.00 | 0.00 | 93 | 1025.7 |
| 20260509181047 | 10 | 330 | 1.6 | 4.8 | 0.00 | 0.00 | 0.00 | 93 | 1025.7 |
| 20260509180045 | 10 | 330 | 1.6 | 4.8 | 0.00 | 0.00 | 0.00 | 93 | 1025.4 |
| 20260509175044 | 10 | 86 | 0.0 | 1.6 | 0.00 | 0.00 | 0.00 | 92 | 1025.7 |
| 20260509174042 | 10 | 86 | 0.0 | 1.6 | 0.00 | 0.00 | 0.00 | 93 | 1025.4 |
| 20260509173040 | 10 | 86 | 0.0 | 1.6 | 0.00 | 0.00 | 0.00 | 93 | 1025.4 |
| 20260509172038 | 10 | 86 | 0.0 | 0.0 | 0.00 | 0.00 | 0.00 | 93 | 1025.4 |
| 20260509171006 | 10 | 86 | 0.0 | 1.6 | 0.00 | 0.00 | 0.00 | 93 | 1025.4 |
| 20260509170004 | 10 | 86 | 0.0 | 1.6 | 0.00 | 0.00 | 0.00 | 93 | 1025.4 |
| 20260509165003 | 10 | 86 | 0.0 | 1.6 | 0.00 | 0.00 | 0.00 | 92 | 1025.4 |
| 20260509164001 | 10 | 86 | 1.6 | 1.6 | 0.00 | 0.00 | 0.00 | 92 | 1025.4 |
| 20260509162959 | 11 | 86 | 0.0 | 0.0 | 0.00 | 0.00 | 0.00 | 92 | 1025.4 |
| 20260509161958 | 11 | 86 | 0.0 | 3.2 | 0.00 | 0.00 | 0.00 | 92 | 1025.4 |
| 20260509160925 | 11 | 86 | 1.6 | 3.2 | 0.00 | 0.00 | 0.00 | 92 | 1025.4 |
| 20260509155924 | 11 | 86 | 0.0 | 1.6 | 0.00 | 0.00 | 0.00 | 92 | 1025.4 |
| 20260509154923 | 11 | 86 | 0.0 | 3.2 | 0.00 | 0.00 | 0.00 | 92 | 1025.4 |
| 20260509153921 | 11 | 86 | 1.6 | 3.2 | 0.00 | 0.00 | 0.00 | 92 | 1025.4 |
| 20260509152920 | 11 | 86 | 0.0 | 1.6 | 0.00 | 0.00 | 0.00 | 92 | 1025.8 |
| 20260509151919 | 11 | 86 | 0.0 | 1.6 | 0.00 | 0.00 | 0.00 | 92 | 1025.8 |
| 20260509150917 | 11 | 86 | 0.0 | 3.2 | 0.00 | 0.00 | 0.00 | 92 | 1025.8 |
| 20260509145915 | 11 | 86 | 0.0 | 1.6 | 0.00 | 0.00 | 0.00 | 91 | 1025.8 |
| 20260509144914 | 11 | 86 | 0.0 | 1.6 | 0.00 | 0.00 | 0.00 | 91 | 1025.8 |
| 20260509143913 | 11 | 86 | 1.6 | 1.6 | 0.00 | 0.00 | 0.00 | 91 | 1025.5 |
| 20260509142911 | 11 | 86 | 0.0 | 1.6 | 0.00 | 0.00 | 0.00 | 91 | 1025.8 |
| 20260509141838 | 11 | 86 | 1.6 | 1.6 | 0.00 | 0.00 | 0.00 | 91 | 1025.4 |
| 20260509140836 | 11 | 86 | 1.6 | 1.6 | 0.00 | 0.00 | 0.00 | 91 | 1025.4 |
| 20260509135834 | 11 | 86 | 0.0 | 1.6 | 0.00 | 0.00 | 0.00 | 91 | 1025.8 |
| 20260509134832 | 11 | 86 | 0.0 | 1.6 | 0.00 | 0.00 | 0.00 | 90 | 1025.8 |
| 20260509133831 | 11 | 86 | 0.0 | 1.6 | 0.00 | 0.00 | 0.00 | 91 | 1025.8 |
| 20260509132830 | 11 | 86 | 0.0 | 1.6 | 0.00 | 0.00 | 0.00 | 90 | 1025.8 |
| 20260509131828 | 12 | 86 | 0.0 | 1.6 | 0.00 | 0.00 | 0.00 | 90 | 1025.8 |
| 20260509130827 | 12 | 86 | 1.6 | 1.6 | 0.00 | 0.00 | 0.00 | 89 | 1025.8 |
| 20260509125825 | 12 | 86 | 1.6 | 1.6 | 0.00 | 0.00 | 0.00 | 89 | 1025.8 |
| 20260509124824 | 12 | 86 | 0.0 | 1.6 | 0.00 | 0.00 | 0.00 | 89 | 1025.8 |
| 20260509123822 | 12 | 86 | 0.0 | 0.0 | 0.00 | 0.00 | 0.00 | 89 | 1025.8 |
| 20260509122749 | 12 | 86 | 0.0 | 1.6 | 0.00 | 0.00 | 0.00 | 88 | 1025.8 |
| 20260509121716 | 12 | 86 | 0.0 | 1.6 | 0.00 | 0.00 | 0.00 | 89 | 1025.8 |
| 20260509120643 | 12 | 86 | 0.0 | 1.6 | 0.00 | 0.00 | 0.00 | 88 | 1025.8 |
| 20260509115611 | 12 | 86 | 0.0 | 1.6 | 0.00 | 0.00 | 0.00 | 88 | 1025.8 |
| 20260509114609 | 12 | 86 | 0.0 | 1.6 | 0.00 | 0.00 | 0.00 | 87 | 1025.8 |
| 20260509113607 | 12 | 86 | 0.0 | 1.6 | 0.00 | 0.00 | 0.00 | 87 | 1025.4 |
| 20260509112606 | 12 | 86 | 0.0 | 1.6 | 0.00 | 0.00 | 0.00 | 87 | 1025.4 |
| 20260509111605 | 13 | 86 | 0.0 | 1.6 | 0.00 | 0.00 | 0.00 | 86 | 1025.4 |
| 20260509110603 | 13 | 86 | 0.0 | 0.0 | 0.00 | 0.00 | 0.00 | 85 | 1025.4 |
| 20260509105602 | 13 | 86 | 0.0 | 0.0 | 0.00 | 0.00 | 0.00 | 85 | 1025.4 |
| 20260509104600 | 13 | 86 | 0.0 | 0.0 | 0.00 | 0.00 | 0.00 | 84 | 1025.4 |
| 20260509103559 | 13 | 86 | 0.0 | 0.0 | 0.00 | 0.00 | 0.00 | 84 | 1025.4 |
| 20260509102557 | 13 | 86 | 0.0 | 0.0 | 0.00 | 0.00 | 0.00 | 84 | 1025.4 |
| 20260509101556 | 13 | 86 | 0.0 | 0.0 | 0.00 | 0.00 | 0.00 | 83 | 1025.1 |
| 20260509100555 | 14 | 86 | 0.0 | 0.0 | 0.00 | 0.00 | 0.00 | 82 | 1025.1 |
| 20260509095522 | 14 | 86 | 0.0 | 0.0 | 0.00 | 0.00 | 0.00 | 82 | 1025.1 |
| 20260509094520 | 14 | 86 | 0.0 | 0.0 | 0.00 | 0.00 | 0.00 | 81 | 1025.1 |
| 20260509093519 | 14 | 86 | 0.0 | 1.6 | 0.00 | 0.00 | 0.00 | 79 | 1024.7 |
| 20260509092517 | 15 | 86 | 0.0 | 1.6 | 0.00 | 0.00 | 0.00 | 77 | 1024.7 |
| 20260509091515 | 15 | 86 | 0.0 | 0.0 | 0.00 | 0.00 | 0.00 | 76 | 1024.7 |
| 20260509090513 | 15 | 86 | 0.0 | 3.2 | 0.00 | 0.00 | 0.00 | 74 | 1024.4 |
| 20260509085441 | 15 | 86 | 0.0 | 3.2 | 0.00 | 0.00 | 0.00 | 72 | 1024.4 |
| 20260509084440 | 16 | 86 | 0.0 | 0.0 | 0.00 | 0.00 | 0.00 | 71 | 1024.4 |
| 20260509083336 | 16 | 86 | 0.0 | 0.0 | 0.00 | 0.00 | 0.00 | 69 | 1024.1 |
| 20260509082334 | 16 | 86 | 0.0 | 0.0 | 0.00 | 0.00 | 0.00 | 67 | 1024.1 |
| 20260509081333 | 17 | 86 | 0.0 | 4.8 | 0.00 | 0.00 | 0.00 | 66 | 1024.1 |
| 20260509080331 | 17 | 86 | 0.0 | 4.8 | 0.00 | 0.00 | 0.00 | 65 | 1023.7 |
| 20260509075330 | 17 | 86 | 0.0 | 1.6 | 0.00 | 0.00 | 0.00 | 64 | 1023.7 |
| 20260509074329 | 17 | 86 | 0.0 | 3.2 | 0.00 | 0.00 | 0.00 | 64 | 1023.7 |
| 20260509073327 | 17 | 86 | 0.0 | 11.3 | 0.00 | 0.00 | 0.00 | 64 | 1023.4 |
| 20260509072325 | 17 | 90 | 4.8 | 11.3 | 0.00 | 0.00 | 0.00 | 63 | 1023.4 |
| 20260509071323 | 18 | 81 | 3.2 | 9.7 | 0.00 | 0.00 | 0.00 | 64 | 1023.4 |
| 20260509070321 | 18 | 85 | 3.2 | 9.7 | 0.00 | 0.00 | 0.00 | 63 | 1023.4 |
| 20260509065248 | 18 | 118 | 3.2 | 11.3 | 0.00 | 0.00 | 0.00 | 62 | 1023.1 |
| 20260509064246 | 18 | 87 | 3.2 | 11.3 | 0.00 | 0.00 | 0.00 | 63 | 1023.1 |
| 20260509063245 | 18 | 105 | 3.2 | 11.3 | 0.00 | 0.00 | 0.00 | 63 | 1022.7 |
| 20260509062243 | 18 | 111 | 3.2 | 8.0 | 0.00 | 0.00 | 0.00 | 64 | 1022.7 |
| 20260509061241 | 18 | 115 | 4.8 | 9.7 | 0.00 | 0.00 | 0.00 | 60 | 1022.7 |
| 20260509060240 | 18 | 102 | 3.2 | 12.9 | 0.00 | 0.00 | 0.00 | 60 | 1022.7 |
| 20260509055238 | 18 | 85 | 6.4 | 12.9 | 0.00 | 0.00 | 0.00 | 60 | 1022.4 |
| 20260509054237 | 19 | 144 | 3.2 | 14.5 | 0.00 | 0.00 | 0.00 | 57 | 1022.4 |
| 20260509053205 | 19 | 130 | 4.8 | 14.5 | 0.00 | 0.00 | 0.00 | 56 | 1022.4 |
| 20260509052203 | 19 | 111 | 1.6 | 12.9 | 0.00 | 0.00 | 0.00 | 57 | 1022.4 |
| 20260509051202 | 19 | 131 | 3.2 | 14.5 | 0.00 | 0.00 | 0.00 | 57 | 1022.4 |
| 20260509050200 | 20 | 96 | 4.8 | 14.5 | 0.00 | 0.00 | 0.00 | 55 | 1022.4 |
| 20260509045158 | 20 | 80 | 4.8 | 11.3 | 0.00 | 0.00 | 0.00 | 54 | 1022.1 |
| 20260509044156 | 20 | 130 | 3.2 | 9.7 | 0.00 | 0.00 | 0.00 | 53 | 1022.1 |
| 20260509043155 | 20 | 119 | 3.2 | 12.9 | 0.00 | 0.00 | 0.00 | 54 | 1022.1 |
| 20260509042153 | 21 | 119 | 3.2 | 12.9 | 0.00 | 0.00 | 0.00 | 54 | 1022.1 |
| 20260509041121 | 21 | 111 | 3.2 | 11.3 | 0.00 | 0.00 | 0.00 | 51 | 1022.1 |
| 20260509040120 | 21 | 111 | 4.8 | 6.4 | 0.00 | 0.00 | 0.00 | 51 | 1022.1 |
| 20260509035047 | 21 | 100 | 1.6 | 4.8 | 0.00 | 0.00 | 0.00 | 51 | 1022.1 |
| 20260509034045 | 21 | 130 | 1.6 | 8.0 | 0.00 | 0.00 | 0.00 | 52 | 1022.1 |
| 20260509033044 | 21 | 96 | 3.2 | 12.9 | 0.00 | 0.00 | 0.00 | 51 | 1022.4 |
| 20260509032011 | 21 | 118 | 3.2 | 11.3 | 0.00 | 0.00 | 0.00 | 53 | 1022.4 |
| 20260509030938 | 21 | 114 | 3.2 | 11.3 | 0.00 | 0.00 | 0.00 | 52 | 1022.4 |
| 20260509025937 | 21 | 95 | 3.2 | 8.0 | 0.00 | 0.00 | 0.00 | 51 | 1022.4 |
| 20260509024935 | 22 | 90 | 1.6 | 9.7 | 0.00 | 0.00 | 0.00 | 51 | 1022.8 |
| 20260509023933 | 22 | 162 | 1.6 | 4.8 | 0.00 | 0.00 | 0.00 | 46 | 1022.8 |
| 20260509022932 | 22 | 174 | 1.6 | 4.8 | 0.00 | 0.00 | 0.00 | 44 | 1022.8 |
| 20260509021930 | 22 | 218 | 1.6 | 4.8 | 0.00 | 0.00 | 0.00 | 44 | 1023.1 |
| 20260509020928 | 22 | 256 | 1.6 | 4.8 | 0.00 | 0.00 | 0.00 | 45 | 1023.1 |
| 20260509015855 | 22 | 276 | 1.6 | 4.8 | 0.00 | 0.00 | 0.00 | 47 | 1023.4 |
| 20260509014821 | 22 | 261 | 1.6 | 4.8 | 0.00 | 0.00 | 0.00 | 48 | 1023.4 |
| 20260509013820 | 21 | 266 | 1.6 | 4.8 | 0.00 | 0.00 | 0.00 | 49 | 1023.8 |
| 20260509012818 | 21 | 299 | 1.6 | 4.8 | 0.00 | 0.00 | 0.00 | 50 | 1023.8 |